Stündliche Wetter Warmatowice

Heute, 25 Oktober, Sonntag

Zeit Temperatur Niederschläge Wind Luftdruck Luftfeuchtigkeit
00:00 +12°C° 0 mm 1 m/S 741 mmHg 91%
01:00 +12°C° 0 mm 1 m/S 741 mmHg 91%
02:00 +11°C° 0 mm 1 m/S 740 mmHg 92%
03:00 +11°C° 0 mm 1 m/S 740 mmHg 93%
04:00 +11°C° 0 mm 1 m/S 740 mmHg 94%
05:00 +10°C° 0 mm 1 m/S 740 mmHg 94%
06:00 +10°C° 0 mm 1 m/S 740 mmHg 94%
07:00 +10°C° 0 mm 1 m/S 740 mmHg 94%
08:00 +12°C° 0 mm 2 m/S 740 mmHg 89%
09:00 +13°C° 0 mm 2 m/S 740 mmHg 83%
10:00 +15°C° 0 mm 2 m/S 739 mmHg 77%
11:00 +16°C° 0 mm 2 m/S 739 mmHg 73%
12:00 +16°C° 0 mm 2 m/S 739 mmHg 69%
13:00 +17°C° 0 mm 2 m/S 739 mmHg 65%
14:00 +17°C° 0 mm 2 m/S 738 mmHg 67%
15:00 +16°C° 0 mm 2 m/S 737 mmHg 70%
16:00 +15°C° 0 mm 2 m/S 737 mmHg 73%
17:00 +14°C° 0 mm 2 m/S 737 mmHg 77%
18:00 +13°C° 0 mm 2 m/S 737 mmHg 81%
19:00 +12°C° 0 mm 2 m/S 737 mmHg 85%
20:00 +12°C° 0 mm 2 m/S 737 mmHg 87%
21:00 +12°C° 0 mm 2 m/S 737 mmHg 88%
22:00 +11°C° 0 mm 3 m/S 736 mmHg 90%
23:00 +10°C° 0 mm 3 m/S 736 mmHg 90%

Morgen, 26 Oktober, Montag

Zeit Temperatur Niederschläge Wind Luftdruck Luftfeuchtigkeit
00:00 +10°C° 0 mm 3 m/S 736 mmHg 91%
01:00 +10°C° 0 mm 3 m/S 736 mmHg 92%
02:00 +10°C° 0 mm 3 m/S 735 mmHg 92%
03:00 +10°C° 0 mm 2 m/S 735 mmHg 92%
04:00 +10°C° 0 mm 2 m/S 735 mmHg 93%
05:00 +9°C° 0 mm 2 m/S 735 mmHg 93%
06:00 +9°C° 0 mm 2 m/S 734 mmHg 93%
07:00 +9°C° 0 mm 2 m/S 734 mmHg 93%
08:00 +12°C° 0 mm 2 m/S 734 mmHg 85%
09:00 +13°C° 0 mm 2 m/S 734 mmHg 78%
10:00 +15°C° 0 mm 2 m/S 734 mmHg 71%
11:00 +15°C° 0 mm 2 m/S 734 mmHg 69%
12:00 +16°C° 0 mm 2 m/S 734 mmHg 67%
13:00 +16°C° 0 mm 3 m/S 734 mmHg 65%
14:00 +16°C° 0 mm 3 m/S 733 mmHg 69%
15:00 +14°C° 0 mm 3 m/S 733 mmHg 72%
16:00 +14°C° 0 mm 3 m/S 733 mmHg 75%
17:00 +13°C° 0.1 mm 3 m/S 733 mmHg 78%
18:00 +13°C° 0.1 mm 3 m/S 733 mmHg 80%
19:00 +14°C° 0.1 mm 2 m/S 734 mmHg 83%
20:00 +13°C° 0 mm 2 m/S 734 mmHg 84%
21:00 +13°C° 0 mm 2 m/S 734 mmHg 86%
22:00 +12°C° 0 mm 2 m/S 734 mmHg 87%
23:00 +13°C° 0.2 mm 1 m/S 734 mmHg 87%

übermorgen, 27 Oktober, Dienstag

Zeit Temperatur Niederschläge Wind Luftdruck Luftfeuchtigkeit
00:00 +13°C° 0.2 mm 1 m/S 734 mmHg 87%
01:00 +13°C° 0.2 mm 1 m/S 734 mmHg 87%
02:00 +13°C° 0 mm 1 m/S 734 mmHg 86%
03:00 +13°C° 0 mm 2 m/S 734 mmHg 85%
04:00 +13°C° 0 mm 2 m/S 734 mmHg 85%
05:00 +12°C° 0 mm 3 m/S 735 mmHg 83%
06:00 +12°C° 0 mm 3 m/S 735 mmHg 82%
07:00 +12°C° 0 mm 3 m/S 735 mmHg 80%
08:00 +13°C° 0 mm 4 m/S 735 mmHg 76%
09:00 +14°C° 0 mm 5 m/S 735 mmHg 71%
10:00 +15°C° 0 mm 6 m/S 735 mmHg 67%
11:00 +16°C° 0 mm 6 m/S 736 mmHg 64%
12:00 +17°C° 0 mm 6 m/S 736 mmHg 61%
13:00 +17°C° 0 mm 6 m/S 736 mmHg 58%
14:00 +17°C° 0 mm 5 m/S 736 mmHg 62%
15:00 +17°C° 0 mm 3 m/S 736 mmHg 66%
16:00 +16°C° 0 mm 2 m/S 736 mmHg 69%
17:00 +16°C° 0.1 mm 2 m/S 736 mmHg 73%
18:00 +15°C° 0.1 mm 2 m/S 737 mmHg 77%
19:00 +14°C° 0.1 mm 2 m/S 737 mmHg 80%
20:00 +13°C° 0.1 mm 2 m/S 737 mmHg 83%
21:00 +13°C° 0.1 mm 2 m/S 738 mmHg 86%
22:00 +12°C° 0.1 mm 1 m/S 738 mmHg 89%
23:00 +11°C° 0 mm 1 m/S 738 mmHg 90%

28 Oktober, Mittwoch

Zeit Temperatur Niederschläge Wind Luftdruck Luftfeuchtigkeit
00:00 +11°C° 0 mm 1 m/S 738 mmHg 92%
01:00 +10°C° 0 mm 1 m/S 739 mmHg 93%
02:00 +10°C° 0 mm 1 m/S 739 mmHg 93%
03:00 +9°C° 0 mm 0 m/S 739 mmHg 93%
04:00 +8°C° 0 mm 0 m/S 739 mmHg 93%
05:00 +8°C° 0 mm 0 m/S 739 mmHg 92%
06:00 +9°C° 0 mm 1 m/S 739 mmHg 92%
07:00 +9°C° 0 mm 1 m/S 739 mmHg 91%
08:00 +9°C° 0 mm 2 m/S 739 mmHg 83%
09:00 +12°C° 0 mm 2 m/S 739 mmHg 76%
10:00 +12°C° 0 mm 3 m/S 739 mmHg 69%
11:00 +13°C° 0 mm 3 m/S 739 mmHg 69%
12:00 +13°C° 0 mm 3 m/S 739 mmHg 69%
13:00 +14°C° 0 mm 3 m/S 739 mmHg 69%
14:00 +13°C° 0 mm 3 m/S 739 mmHg 71%
15:00 +13°C° 0 mm 3 m/S 739 mmHg 73%
16:00 +14°C° 0 mm 2 m/S 739 mmHg 75%
17:00 +13°C° 0 mm 2 m/S 739 mmHg 77%
18:00 +11°C° 0 mm 3 m/S 739 mmHg 80%
19:00 +11°C° 0 mm 3 m/S 739 mmHg 82%
20:00 +10°C° 0 mm 3 m/S 739 mmHg 81%
21:00 +10°C° 0 mm 2 m/S 740 mmHg 81%
22:00 +10°C° 0 mm 2 m/S 740 mmHg 81%
23:00 +9°C° 0 mm 2 m/S 740 mmHg 80%

29 Oktober, Donnerstag

Zeit Temperatur Niederschläge Wind Luftdruck Luftfeuchtigkeit
00:00 +9°C° 0 mm 2 m/S 740 mmHg 78%
01:00 +9°C° 0 mm 2 m/S 740 mmHg 77%
02:00 +9°C° 0 mm 2 m/S 740 mmHg 77%
03:00 +9°C° 0 mm 3 m/S 740 mmHg 78%
04:00 +9°C° 0 mm 3 m/S 740 mmHg 78%
05:00 +9°C° 0 mm 3 m/S 740 mmHg 77%
06:00 +9°C° 0 mm 3 m/S 740 mmHg 77%
07:00 +9°C° 0 mm 2 m/S 740 mmHg 76%
08:00 +11°C° 0 mm 3 m/S 741 mmHg 72%
09:00 +12°C° 0 mm 3 m/S 741 mmHg 67%
10:00 +13°C° 0 mm 4 m/S 741 mmHg 63%
11:00 +14°C° 0 mm 4 m/S 741 mmHg 61%
12:00 +14°C° 0 mm 5 m/S 741 mmHg 60%
13:00 +15°C° 0 mm 5 m/S 741 mmHg 59%
14:00 +14°C° 0 mm 4 m/S 741 mmHg 62%
15:00 +13°C° 0 mm 3 m/S 742 mmHg 66%
16:00 +13°C° 0 mm 3 m/S 742 mmHg 70%
17:00 +12°C° 0 mm 3 m/S 742 mmHg 72%
18:00 +11°C° 0 mm 3 m/S 743 mmHg 75%
19:00 +11°C° 0 mm 3 m/S 743 mmHg 77%
20:00 +10°C° 0 mm 3 m/S 743 mmHg 78%
21:00 +10°C° 0 mm 3 m/S 744 mmHg 78%
22:00 +9°C° 0 mm 3 m/S 744 mmHg 79%
23:00 +9°C° 0 mm 3 m/S 744 mmHg 80%

30 Oktober, Freitag

Zeit Temperatur Niederschläge Wind Luftdruck Luftfeuchtigkeit
00:00 +9°C° 0 mm 3 m/S 744 mmHg 81%
01:00 +9°C° 0 mm 3 m/S 744 mmHg 81%
02:00 +8°C° 0 mm 4 m/S 744 mmHg 81%
03:00 +8°C° 0 mm 4 m/S 744 mmHg 81%
04:00 +8°C° 0 mm 4 m/S 744 mmHg 81%
05:00 +8°C° 0 mm 4 m/S 744 mmHg 81%
06:00 +8°C° 0 mm 4 m/S 744 mmHg 81%
07:00 +8°C° 0 mm 4 m/S 744 mmHg 81%
08:00 +10°C° 0 mm 4 m/S 744 mmHg 78%
09:00 +11°C° 0 mm 4 m/S 744 mmHg 75%
10:00 +11°C° 0 mm 4 m/S 745 mmHg 72%
11:00 +12°C° 0 mm 4 m/S 745 mmHg 71%
12:00 +13°C° 0 mm 4 m/S 745 mmHg 69%
13:00 +13°C° 0 mm 4 m/S 744 mmHg 67%
14:00 +13°C° 0 mm 4 m/S 744 mmHg 68%
15:00 +13°C° 0 mm 4 m/S 744 mmHg 69%
16:00 +13°C° 0 mm 4 m/S 744 mmHg 70%
17:00 +13°C° 0 mm 4 m/S 744 mmHg 70%
18:00 +12°C° 0 mm 4 m/S 745 mmHg 70%
19:00 +12°C° 0 mm 5 m/S 745 mmHg 70%
20:00 +12°C° 0 mm 4 m/S 745 mmHg 71%
21:00 +11°C° 0 mm 4 m/S 745 mmHg 72%
22:00 +11°C° 0 mm 4 m/S 745 mmHg 73%
23:00 +11°C° 0 mm 4 m/S 745 mmHg 74%
Mehr zeigen

Wir brauchen deine Erlaubnis

Meteoprog und unser Service Anbieter werden persönliche Daten aufbewahren, so wie Cookies, Geräte Bezeichnung oder ähnliche Technologien von deinem Gerät und Prozess, so wie Persönliche Daten Inhalte und Werbungen, genauso wie social Media und den Verkehr zu analysieren.

  • Aufbewahrung und/oder Zugang zu deiner Geräte Informationen.

    Cookies, Geräte Bezeichnung oder andere Informationen, können aufbewahrt oder Zugang zu deinem Gerät erhalten, für den Grund, der oben angegeben wird.

  • Personalisierte Werbung und Inhalte, Messungen, Einblick in das Publikum und Produkt Entwicklung.

    Werbungen und Inhalte können personalisiert werden, basierend auf ein Profil. Mehr Daten können besser personalisierte Werbungen und Inhalte hinzufügen. Werbung und Inhalte können gezeigt und gemessen werden. Einblicke über das Publikum, welche die Werbung gesehen haben und den Inhalt, können abgeleitet werden. So wie Daten können genutzt werden, um es zu verbessern oder die Benutzer Erfahrung zu verbessern das System und die Software.

Wenn du “Ich stimme zu” klickst, erlaubst du uns, die Cookies zu benutzen die Geräte Bezeichnung, den Web oder ähnliche Technologien zu benutzen. Deine Settings, können in deinem Gerät bei deinem Browser geändert werden.

Für den bestimmten Zweck, berechtigten Interessen beruhen darauf, mehr als auf den Inhalt. Du kannst mehr darüber in unseren Privaten und Cookie Politik lesen.